User: anonymous   Login
Location: Unspecified
(0.0000°N, 0.0000°E)
Time: 02:46:01
(UTC+00:00)
Language:

NODES 1 - Orbit

View from above orbital plane
View from above orbital plane
View from above satellite
View from above satellite

Ground track
Ground track

The orbit data is extracted from the following two-line orbital elements,

1 41477U 98067HX  17146.90233446 +.00048496 +00000-0 +26037-3 0  9995
2 41477 051.6284 113.7116 0004703 046.1182 314.0207 15.79743577058709
Epoch (UTC): 26 May 2017 21:39:21
Eccentricity: 0.0004703
inclination: 51.6284°
perigee height: 328 km
apogee height: 334 km
right ascension of ascending node: 113.7116°
argument of perigee: 46.1182°
revolutions per day: 15.79743577
mean anomaly at epoch: 314.0207°
orbit number at epoch: 5870

The dashed part of the orbit path shows where the satellite is in the earth's shadow,  

DLR